Temp
7 7 7 7 7 7 7 6 7 7 7 7 7 7 7 7 7 7 8 8 8 8 8 8 8 8 8 9 10 10 10 11 12 11 10 9 9 10 9 9 10 11 12 11 12 13 13 14 14 13 15 15 14 14 14 13 14 15 16 15 16 17 17 16 16 17 16 17 18 17 17 17 19 18 18 18 18 18 18 17 17 17 17 17 16 14 14 15
7 7 7 7 7 7 7 7 6 7 7 7 6 7 7 7 7 7 8 8 8 8 8 8 8 8 8 9 10 10 11 11 11 11 10 9 9 9 9 9 10 11 11 11 11 11 13 13 12 12 15 15 13 14 14 13 13 15 15 15 16 16 16 15 15 15 15 15 16 17 16 16 17 17 17 18 19 19 18 18 18 17 17 17 16 14 13 14
6 6 6 6 6 6 6 6 6 6 6 6 6 6 7 7 7 7 7 8 8 8 8 8 8 8 8 9 10 11 11 11 12 11 9 9 9 9 9 10 10 10 11 11 11 11 11 11 11 12 14 14 13 13 14 13 13 15 14 14 16 14 14 15 14 14 14 14 14 16 16 16 16 16 15 17 18 18 19 19 18 18 18 16 15 14 12 12
6 6 6 6 6 6 6 6 6 6 6 6 6 6 7 7 7 7 7 7 8 8 8 8 8 8 8 9 11 11 10 12 12 10 9 9 8 9 9 9 10 10 11 11 11 11 11 10 11 12 14 14 12 13 13 12 12 13 13 14 15 13 13 15 15 14 13 13 14 15 15 16 16 14 14 16 17 19 19 18 16 16 15 14 13 12 11 12
6 6 6 6 6 6 6 6 6 6 6 6 6 6 6 7 7 7 7 7 7 7 7 8 8 8 9 10 11 10 11 14 12 9 9 9 9 9 9 9 10 10 11 11 11 11 11 11 12 12 13 14 13 13 13 11 12 12 13 14 13 13 13 14 14 13 12 13 13 14 15 16 15 14 15 15 17 18 18 15 14 13 13 12 12 11 11 11
6 6 6 6 6 6 6 6 6 6 6 6 6 6 6 6 6 7 7 7 7 7 7 7 8 8 9 10 10 10 12 14 10 8 9 9 9 9 9 10 10 10 11 11 11 10 11 12 12 12 12 12 11 12 12 11 11 12 14 13 12 12 12 13 14 13 12 12 13 14 15 14 14 15 14 13 16 17 14 13 13 12 12 12 12 11 11 11
6 6 6 6 6 6 6 6 6 6 6 6 6 6 6 6 6 7 7 7 7 7 7 7 7 9 10 10 10 10 12 12 9 9 9 9 10 10 10 10 10 10 10 11 11 11 11 11 12 11 12 12 10 11 11 11 11 11 13 13 12 12 12 13 13 13 12 11 13 14 14 14 14 15 13 12 15 15 12 12 12 12 12 12 12 11 10 10
6 6 6 6 6 6 6 6 6 6 6 6 6 6 6 6 7 7 7 7 7 7 7 7 7 9 10 10 11 12 12 10 9 9 9 9 10 10 10 10 10 10 10 10 10 10 10 10 10 10 12 12 10 11 11 11 12 11 12 12 12 12 12 13 12 12 12 12 13 13 13 14 15 14 12 14 15 13 11 12 12 12 12 12 12 11 11 10
6 6 6 6 6 5 6 6 6 6 6 6 6 6 6 6 6 6 6 6 6 7 7 7 7 8 10 10 11 13 12 9 9 9 9 9 9 9 10 10 10 10 10 9 9 10 10 10 10 10 11 10 9 11 10 11 12 10 11 11 11 12 12 12 12 12 12 12 12 12 13 15 14 12 12 14 13 11 11 11 11 11 11 12 12 11 11 10
6 6 6 6 5 6 5 6 6 6 6 6 6 6 6 6 6 6 6 6 6 7 7 7 8 9 10 10 12 13 11 9 9 9 9 9 9 9 9 10 10 10 10 9 9 10 10 10 10 10 11 10 9 10 10 11 11 10 10 11 11 11 12 11 11 11 12 12 12 12 13 14 12 12 14 13 10 10 10 11 11 11 11 12 12 11 11 10
6 6 6 5 5 5 5 6 6 6 6 6 6 6 6 6 6 6 6 6 6 7 7 7 8 9 9 10 12 13 10 9 9 9 9 9 9 9 9 10 9 9 10 10 10 9 10 10 9 9 10 10 10 10 10 10 10 10 10 11 11 12 12 11 11 11 11 12 12 11 12 13 12 12 13 12 10 11 10 11 11 11 11 12 12 11 11 11
6 6 5 5 5 5 5 5 5 5 6 6 6 6 6 6 6 6 6 6 6 7 7 7 8 8 8 11 12 11 9 9 9 9 9 9 9 9 9 9 9 9 9 10 10 9 9 9 9 10 10 10 11 11 10 9 9 10 10 10 12 13 12 11 11 11 10 11 12 12 12 13 12 12 12 11 11 11 10 11 11 11 11 12 12 11 11 12
6 6 5 5 5 5 5 5 5 5 5 6 6 6 6 6 6 6 6 7 7 7 7 7 8 8 9 11 11 9 9 9 8 9 9 9 9 9 9 9 9 9 9 10 9 9 8 8 9 10 9 10 11 11 10 9 9 10 10 10 12 12 13 12 11 11 11 11 12 11 12 14 14 13 12 11 11 11 11 12 12 12 12 12 12 11 12 12
6 6 5 5 5 5 5 5 5 5 6 6 6 6 6 6 6 6 6 6 7 7 7 7 8 8 10 11 9 9 9 8 8 9 9 9 9 9 9 9 9 9 9 9 9 9 8 8 8 9 9 9 10 10 10 10 10 11 11 11 11 12 13 13 10 10 12 11 11 11 11 14 15 13 13 12 11 10 11 13 13 13 12 12 12 12 12 12
5 5 5 5 5 5 5 5 5 5 5 6 5 6 5 6 6 6 6 6 6 7 7 7 8 9 11 11 9 9 9 9 9 8 9 9 9 9 9 8 9 9 9 9 9 8 8 8 9 10 9 8 9 10 12 12 11 11 11 12 12 11 12 13 10 10 11 11 11 11 11 13 14 14 13 11 10 10 11 12 13 13 12 12 12 12 12 12
5 5 5 5 5 5 5 5 5 5 5 5 5 5 6 6 6 6 6 6 7 7 7 8 8 9 11 11 9 9 9 9 9 8 8 8 8 9 9 9 8 9 9 8 8 8 8 8 8 8 9 9 10 11 12 12 12 11 11 12 11 11 11 12 11 10 9 10 11 11 11 12 13 14 13 11 10 10 10 11 12 13 13 12 12 12 12 12
5 5 5 5 5 5 5 5 5 5 5 5 5 5 6 6 6 6 6 7 7 7 7 8 7 8 10 9 9 9 9 9 8 8 8 8 8 8 9 9 8 8 8 8 8 8 9 9 8 8 9 10 10 11 13 13 13 12 11 11 11 10 10 11 12 10 9 10 10 10 10 11 12 14 13 12 11 10 10 11 12 13 13 13 12 12 12 12
5 5 5 5 5 5 5 5 5 5 5 5 5 6 6 7 6 6 7 7 7 7 8 8 8 10 11 9 9 9 8 8 8 7 8 8 8 8 8 8 8 9 9 9 9 9 9 9 9 10 11 10 10 11 13 12 11 11 10 11 11 10 10 10 11 10 9 9 9 9 10 11 12 13 13 13 12 10 11 12 12 12 13 13 13 12 12 12
5 5 5 5 5 5 5 5 5 5 5 5 6 6 6 7 6 7 6 7 8 9 10 9 9 11 11 9 8 8 7 8 8 8 8 8 8 8 8 8 8 9 10 10 10 9 9 10 10 11 11 10 10 10 11 10 9 9 9 9 9 10 10 10 11 10 8 8 9 9 10 10 11 11 12 13 12 11 11 12 11 11 12 12 13 12 12 12
6 5 5 5 5 5 5 5 5 5 5 5 5 6 8 8 9 9 7 7 8 9 9 9 9 9 9 8 8 7 7 7 8 7 7 7 8 8 8 8 9 10 10 10 10 8 7 10 12 11 11 9 8 8 8 8 8 8 8 9 9 9 10 10 10 9 8 8 9 10 9 9 9 10 10 11 12 11 11 12 11 11 11 11 12 13 13 12
6 5 5 5 5 5 4 4 4 5 5 5 5 7 8 9 10 10 8 8 7 5 6 7 7 8 8 7 7 7 8 8 8 7 7 7 7 8 9 9 10 11 8 7 8 7 8 11 12 10 9 8 8 7 7 7 7 8 8 9 9 9 9 10 9 9 8 7 9 10 10 9 9 9 9 10 10 11 11 12 12 12 12 12 12 13 13 13
5 6 6 5 5 5 4 4 4 5 5 5 5 6 7 7 8 8 7 9 8 3 4 6 5 7 7 6 7 7 8 8 8 8 7 7 7 8 9 9 10 11 7 6 8 9 10 12 11 9 8 7 7 7 7 7 7 8 9 9 9 10 9 10 9 8 8 8 9 10 9 8 9 9 9 10 10 11 11 12 12 13 13 12 12 12 13 13
5 5 6 5 5 5 4 4 5 5 5 5 6 6 6 6 6 6 6 9 8 4 4 6 6 7 7 7 7 7 8 8 9 8 6 7 8 7 8 9 9 9 8 8 10 11 12 11 9 8 7 7 7 7 7 7 8 8 9 9 10 10 9 9 9 7 8 8 8 8 8 9 10 10 10 10 10 10 10 10 11 11 11 12 12 12 12 12
5 5 6 5 5 5 4 4 5 5 5 5 5 6 6 6 6 6 7 8 8 6 6 6 7 7 8 7 7 7 8 7 8 7 5 6 7 6 7 8 8 8 9 8 9 10 11 9 7 7 6 7 8 7 7 8 9 9 9 9 10 9 8 8 8 7 8 8 7 7 9 11 12 11 10 10 9 9 9 9 9 9 9 10 10 11 11 12
5 6 6 5 5 5 4 5 5 5 5 5 6 6 6 6 6 6 7 9 9 7 6 7 7 8 8 7 7 7 7 6 6 6 5 5 6 6 7 6 7 10 8 7 7 10 10 6 6 7 7 7 8 8 8 9 10 10 9 9 9 8 7 6 7 7 8 9 8 7 9 12 12 11 11 10 9 9 9 9 10 11 11 10 9 10 10 11
5 6 6 5 5 4 4 5 5 4 5 6 6 6 6 6 6 6 8 10 11 9 7 7 8 8 8 7 7 7 8 7 5 5 5 5 5 6 7 6 7 8 7 6 7 9 8 5 5 7 7 7 8 8 9 8 9 10 9 8 8 7 6 6 7 7 8 9 9 7 8 10 12 12 11 9 8 9 9 9 9 10 11 11 10 10 10 10
5 6 6 5 5 4 5 5 4 4 6 6 6 6 6 6 6 7 9 12 12 9 7 7 8 8 8 6 6 8 10 7 5 5 5 5 5 6 8 7 7 6 4 5 9 9 6 5 5 6 7 7 8 9 9 8 9 10 7 6 7 7 6 6 6 7 7 7 8 8 7 8 10 11 10 9 10 11 12 12 11 10 11 11 11 11 10 10
5 6 6 5 5 5 4 4 4 5 6 6 6 6 6 6 6 7 10 14 13 9 8 7 7 7 6 6 6 7 6 5 6 6 4 4 5 6 7 7 7 6 2 5 12 8 4 6 7 6 7 8 9 9 8 8 9 8 6 6 7 6 6 6 6 7 6 5 8 8 7 8 10 12 11 9 10 13 14 13 12 12 12 12 12 11 11 11
5 6 6 5 5 5 4 4 4 5 6 6 6 6 6 6 7 9 12 14 12 9 8 7 7 6 6 6 6 5 4 4 5 5 3 5 5 5 6 5 4 5 2 5 9 7 4 5 5 6 8 9 9 7 7 8 8 6 5 6 6 5 5 4 5 7 5 5 8 7 6 8 11 13 13 11 11 13 14 13 12 12 12 12 12 11 11 11
5 6 5 5 5 5 4 4 4 5 5 5 6 6 6 6 8 11 12 13 13 9 7 7 6 6 6 6 6 4 4 3 1 3 4 5 5 4 4 3 3 4 3 4 5 5 3 3 3 5 7 7 7 5 5 6 6 5 5 6 6 5 4 4 4 5 6 7 8 5 4 7 9 13 15 14 13 14 13 13 12 12 12 12 12 12 11 11
5 6 6 5 5 5 5 4 5 5 5 5 6 5 6 8 10 12 12 13 13 9 6 7 5 5 6 7 7 4 4 3 0 3 5 5 5 5 4 5 5 5 6 6 5 4 3 3 4 4 4 5 6 6 5 5 5 6 6 6 7 7 6 6 6 5 8 11 7 3 3 5 8 12 15 15 14 13 13 13 12 12 12 12 11 11 12 11
5 5 6 5 5 5 5 5 5 5 5 5 5 5 8 10 10 12 12 13 13 9 8 7 5 5 6 6 7 4 3 4 2 2 4 4 5 5 6 7 8 9 11 10 8 6 5 3 3 4 3 4 6 7 6 5 6 6 6 6 8 10 9 9 9 8 10 11 6 2 3 5 7 11 13 13 13 13 14 13 13 12 12 12 11 12 11 10
5 5 5 5 5 4 5 5 5 5 5 5 5 7 9 10 11 11 12 13 12 8 7 6 4 4 5 7 7 3 3 4 2 2 2 2 4 6 5 4 4 8 11 9 9 10 9 5 2 3 5 4 6 8 8 7 7 6 7 8 9 10 10 10 10 9 10 9 5 2 4 6 9 11 12 13 13 14 14 13 13 13 12 12 12 12 11 10
6 5 5 5 5 5 5 5 4 4 5 5 6 8 9 10 11 11 12 12 8 5 5 4 4 4 5 7 5 3 5 5 2 2 3 3 5 6 5 3 2 6 8 8 9 10 11 10 5 4 6 5 6 7 8 8 7 6 6 7 8 9 10 10 10 10 9 9 6 4 5 8 11 14 14 14 14 14 13 13 13 12 12 12 11 11 11 10
6 5 5 5 5 5 5 5 4 4 5 5 7 8 9 10 11 11 12 10 6 5 4 3 4 6 6 6 4 2 6 6 2 3 4 5 6 6 7 4 2 5 7 9 10 7 8 10 6 3 4 5 6 6 6 7 7 6 4 6 8 8 9 9 8 7 6 6 6 5 7 10 12 14 14 14 14 13 13 13 12 12 12 11 11 11 11 12
6 5 5 5 5 5 4 5 4 4 5 6 7 8 9 11 11 12 12 10 8 7 5 5 6 8 8 7 5 3 4 5 3 4 5 5 6 6 5 4 3 4 8 10 10 7 8 9 4 3 4 4 5 6 5 7 8 6 6 7 7 6 8 9 6 5 4 6 8 8 9 11 12 14 13 12 12 13 13 13 12 12 12 12 11 12 12 12
5 5 5 4 4 5 4 4 4 4 4 6 7 8 9 11 11 12 10 8 8 7 8 10 10 9 9 9 7 4 4 5 4 6 7 5 6 5 4 4 4 5 7 8 9 9 10 10 4 3 5 4 3 4 4 5 6 6 8 7 6 5 6 8 7 7 7 8 9 9 9 11 12 13 14 13 14 14 13 13 13 13 13 12 12 12 13 13
5 5 4 4 4 4 4 4 4 4 5 5 6 8 9 9 10 10 8 7 8 8 9 12 12 10 10 10 8 4 5 7 6 6 8 7 8 7 5 6 4 4 5 5 7 9 9 11 6 2 5 4 2 4 6 4 4 6 7 6 6 7 7 7 7 8 8 8 9 9 9 10 11 12 14 15 15 15 14 13 13 13 13 13 13 13 13 13
5 4 5 5 5 4 4 4 4 4 5 5 6 8 8 8 9 8 8 8 9 9 10 12 12 10 9 9 8 5 5 7 6 6 9 9 9 8 6 7 4 3 4 4 7 9 8 11 9 3 4 5 4 5 7 6 4 5 6 6 6 7 8 7 7 8 8 8 9 9 9 11 13 14 14 15 15 15 15 14 14 14 14 14 14 14 14 13
5 5 5 5 5 4 4 4 4 4 5 5 6 8 7 8 8 7 7 8 9 10 10 12 11 10 9 8 7 6 5 6 5 7 9 9 9 9 7 7 4 2 3 4 6 8 7 9 9 5 4 5 6 7 8 7 5 4 6 6 5 6 6 7 7 7 8 8 8 8 8 11 14 15 14 15 15 15 14 14 14 14 14 14 14 13 13 13
5 5 5 4 5 4 4 4 4 4 5 5 6 7 7 8 8 6 5 6 8 8 9 10 11 10 9 8 7 7 5 5 5 6 7 7 9 10 8 6 4 3 3 4 6 7 7 8 9 6 4 6 8 7 7 8 7 6 7 6 6 6 6 6 7 7 7 7 8 8 8 10 13 14 14 14 14 14 14 13 13 13 14 13 13 13 12 12
5 5 5 4 4 4 4 4 5 4 5 5 6 7 7 8 8 6 5 5 6 7 7 8 9 9 9 9 8 7 6 5 5 6 7 7 9 10 7 5 4 4 5 6 6 7 7 7 8 7 6 7 7 5 4 6 7 7 7 7 7 7 7 8 8 8 7 7 8 7 7 9 13 13 13 13 14 13 13 13 12 12 12 12 12 12 12 11
5 5 4 3 4 4 4 4 5 4 4 5 6 7 7 7 7 6 5 5 6 7 7 7 8 8 9 9 8 7 7 7 6 6 7 7 8 8 5 4 4 5 7 7 6 6 6 7 8 8 8 7 5 4 4 5 6 6 7 7 7 7 8 8 8 8 7 6 7 7 6 9 13 13 13 13 12 12 12 12 12 11 11 11 12 12 11 11
4 4 3 3 4 4 5 5 5 4 4 4 5 6 6 6 7 6 6 6 7 7 7 7 7 8 8 8 8 8 9 9 8 8 8 7 7 5 3 4 5 6 7 8 8 7 8 8 8 8 9 8 7 6 5 4 5 6 7 7 7 7 8 7 7 7 6 7 8 7 7 10 13 12 12 12 12 12 13 13 13 12 11 11 11 11 11 10
4 3 3 3 4 4 4 5 5 5 4 4 4 5 6 6 6 6 7 7 7 7 8 7 7 8 7 7 7 7 8 9 9 8 7 7 6 3 2 3 5 7 7 6 7 8 8 8 8 9 10 11 11 10 8 6 5 6 7 7 7 7 7 7 7 6 6 7 8 7 8 12 13 13 13 13 13 13 14 14 14 13 12 11 11 11 11 10
4 4 4 3 3 4 4 4 5 5 5 4 4 5 6 6 6 6 7 7 7 7 7 7 7 7 6 6 7 6 7 8 8 7 6 6 6 4 2 2 4 6 5 5 6 8 6 6 7 8 10 12 12 10 7 7 6 6 7 7 6 7 7 7 7 6 7 7 7 8 9 10 12 12 13 13 13 13 13 14 13 13 12 11 11 10 10 9
5 6 5 4 4 3 4 4 3 4 5 5 5 6 6 6 6 6 6 7 7 7 6 6 6 7 7 6 7 6 6 6 6 6 6 6 5 4 1 1 3 4 4 5 6 6 5 5 6 7 7 9 10 8 6 7 7 7 8 7 7 7 7 7 6 7 8 7 8 9 10 9 10 11 12 12 13 13 13 13 13 12 12 11 10 10 9 9
5 6 6 6 6 4 4 4 4 4 5 6 6 7 6 6 6 6 5 5 6 6 7 6 6 7 8 7 7 7 6 5 5 5 6 6 5 4 3 2 2 3 3 4 6 6 6 6 6 5 6 7 8 7 6 6 7 7 7 8 8 7 7 6 6 7 8 8 8 10 10 9 10 11 12 13 13 13 13 12 12 11 11 10 10 10 9 9
4 5 5 7 7 6 6 6 5 4 4 5 6 7 7 7 7 7 6 5 4 5 7 7 6 7 8 8 8 8 6 6 6 5 6 6 5 5 5 4 3 3 4 4 5 6 6 6 6 5 5 6 6 7 6 6 6 6 6 7 7 7 7 7 7 8 8 8 9 10 9 10 11 11 12 12 13 12 12 11 11 10 10 10 10 9 9 9
4 5 5 6 6 7 6 6 5 4 4 5 5 6 7 7 8 8 6 6 5 5 6 7 7 7 7 8 8 8 7 8 9 7 6 6 5 5 6 6 5 3 3 5 5 5 6 6 5 4 4 5 5 6 6 6 6 6 6 6 7 7 7 7 7 7 7 7 8 8 8 8 10 11 11 11 11 11 10 10 10 10 10 10 9 9 9 9
5 6 6 5 5 6 6 5 5 4 4 4 5 6 7 7 8 9 7 7 8 7 6 6 7 7 7 7 8 8 8 9 10 9 7 7 7 6 7 7 6 3 3 4 4 5 5 5 3 3 4 6 6 5 5 5 5 4 5 5 6 6 6 7 7 7 7 7 7 7 7 8 10 11 11 11 11 10 10 10 10 10 10 9 9 9 9 9
4 5 6 5 5 6 6 5 5 4 4 5 5 5 6 7 8 9 8 7 8 8 7 7 7 7 6 6 7 9 9 9 9 8 7 7 8 7 7 7 6 5 4 4 4 4 4 4 4 4 5 6 5 3 4 4 5 5 6 7 7 6 6 6 7 7 7 7 7 7 8 9 11 11 10 11 11 11 11 11 10 10 9 9 9 9 9 8
Height
862 862 861 860 859 858 858 857 856 856 855 854 854 853 852 851 850 849 848 847 847 846 845 844 843 841 840 839 838 838 837 837 836 834 834 839 841 839 838 836 834 833 831 830 828 827 825 824 824 822 820 820 822 822 824 825 825 824 822 822 816 810 808 809 808 805 803 800 796 795 795 795 788 786 785 783 784 784 783 781 779 777 775 776 777 780 780 779
862 861 860 860 859 858 857 857 856 855 855 854 853 852 852 851 850 849 848 847 846 846 845 844 842 841 840 839 838 838 837 837 836 836 838 840 840 839 838 836 834 833 831 830 829 828 826 826 825 823 820 820 823 823 823 826 827 823 821 822 816 812 812 813 814 811 810 807 803 799 798 799 794 791 789 786 783 782 783 781 779 779 776 776 777 779 779 779
861 860 859 859 858 858 857 856 855 855 854 853 852 852 851 851 850 849 848 847 846 845 844 843 842 841 839 838 838 837 837 837 836 838 840 840 839 839 837 836 835 833 832 831 830 829 828 827 825 824 821 820 825 824 823 828 828 824 825 822 815 817 817 813 814 814 813 812 808 802 800 799 795 795 794 790 785 782 782 780 781 780 778 779 779 779 779 779
861 860 859 858 858 857 856 856 855 854 854 853 852 852 851 851 850 849 848 847 846 845 844 843 842 841 839 838 837 837 838 836 837 841 840 839 839 838 837 836 835 833 832 832 831 829 828 827 825 824 820 821 826 824 826 830 829 828 827 821 816 821 820 813 814 815 814 813 810 806 802 799 796 798 797 792 787 781 778 781 785 785 784 785 783 782 781 780
861 859 859 858 857 857 856 856 855 855 854 853 853 852 851 850 850 849 848 847 846 845 844 843 842 841 839 838 836 837 837 833 837 842 839 839 838 837 837 836 835 833 833 832 831 830 828 827 825 824 821 822 825 823 827 832 832 830 823 820 822 824 821 815 814 815 816 814 810 807 802 799 798 798 796 794 790 781 779 783 786 787 788 788 786 785 783 782
860 859 859 858 857 857 856 856 855 855 854 853 852 852 851 850 849 848 848 846 845 845 844 843 842 840 839 838 836 837 835 832 838 841 838 838 838 837 837 836 835 834 834 832 831 830 828 827 825 825 824 825 830 827 829 833 833 830 821 822 824 824 824 818 816 816 816 815 810 806 802 801 800 796 795 797 791 784 786 788 787 787 787 787 788 787 785 783
860 859 859 858 857 856 856 855 855 854 854 853 852 851 850 850 849 848 847 846 845 844 843 842 841 839 838 838 837 837 835 836 840 840 838 839 837 837 836 836 835 834 834 832 831 830 829 828 826 828 826 826 833 831 832 832 832 831 823 823 824 824 824 818 817 816 815 815 809 805 803 802 799 794 796 796 789 788 791 791 790 789 787 787 787 786 785 784
860 859 858 858 857 856 855 855 854 854 853 852 851 851 850 849 848 847 846 845 844 843 842 841 840 839 838 837 837 836 836 838 840 839 839 838 837 837 836 836 836 834 834 832 832 832 831 831 830 830 827 828 835 833 833 830 827 830 825 824 825 823 821 818 817 816 814 812 808 806 804 798 795 796 797 792 787 789 791 791 791 791 789 787 785 784 784 783
859 858 858 857 856 855 854 854 854 853 852 851 850 850 849 848 847 846 845 844 843 842 842 841 839 839 837 837 837 834 836 839 840 839 839 838 837 837 836 836 835 834 834 833 834 832 831 832 832 831 828 832 836 833 834 830 825 830 829 827 826 822 819 818 817 814 813 810 807 806 801 795 795 799 795 787 788 791 792 791 791 791 790 787 785 784 782 782
858 857 857 856 855 854 853 853 852 852 851 850 849 849 848 847 846 845 844 843 843 842 842 840 839 838 837 838 836 834 837 840 839 839 839 838 837 836 836 836 835 835 835 834 834 833 833 833 833 832 829 832 835 833 834 831 827 831 830 827 826 821 819 818 817 815 813 810 809 806 799 794 797 799 790 787 792 793 792 792 790 790 789 787 785 784 782 781
857 856 855 854 854 853 852 851 851 850 849 849 848 847 846 846 845 844 844 843 842 842 841 840 839 838 837 837 835 834 838 839 839 839 838 838 837 837 836 835 835 835 834 835 835 834 834 833 834 833 830 831 833 831 833 832 830 831 830 826 822 818 816 817 816 814 814 810 807 807 801 795 798 796 788 789 792 792 792 791 789 789 787 786 785 783 782 781
856 855 854 853 852 852 851 850 849 849 848 848 847 846 846 845 844 844 843 843 842 841 841 840 839 838 838 836 834 836 838 839 839 838 838 837 837 836 836 835 835 835 835 835 835 835 835 834 834 832 831 832 829 828 831 832 832 830 830 826 818 813 813 815 815 814 816 811 806 806 800 791 791 790 787 789 790 789 791 789 787 787 785 784 783 783 782 780
854 853 852 852 851 850 849 849 848 847 847 846 846 845 845 844 844 843 842 842 841 841 841 840 839 839 837 835 836 838 838 838 839 838 837 837 836 836 836 835 835 835 835 834 834 835 835 834 834 833 833 832 828 828 830 831 830 826 828 827 818 812 808 811 815 814 812 809 807 809 799 782 779 784 785 787 788 788 788 785 783 783 783 782 781 781 780 779
853 852 851 850 849 849 848 847 846 846 846 845 845 844 843 843 842 842 842 841 841 841 840 839 839 838 837 836 837 838 838 838 838 837 837 836 836 836 835 835 835 835 834 834 835 834 835 835 834 834 834 833 831 831 828 827 827 823 824 824 818 814 807 807 815 815 810 808 808 811 802 782 778 782 782 784 786 788 785 781 780 780 780 780 779 779 778 777
851 850 850 849 848 848 846 846 845 845 844 844 843 842 842 842 840 841 840 840 840 839 839 839 838 838 837 836 837 837 837 838 837 837 837 836 836 836 835 835 835 835 834 834 834 834 835 835 834 833 834 835 833 829 822 821 823 823 821 816 815 815 808 805 814 817 814 812 809 810 803 785 778 778 780 785 786 786 785 780 778 777 778 778 777 777 775 775
850 850 849 848 847 846 845 845 844 843 843 842 842 841 841 840 840 839 838 839 839 838 839 839 838 838 835 835 836 836 837 837 837 837 836 836 836 835 836 835 835 835 835 835 835 835 835 835 836 836 835 833 831 826 818 816 818 820 821 817 817 819 814 808 810 816 819 815 810 810 805 792 782 778 781 786 786 786 784 779 777 775 774 775 775 774 774 773
849 849 848 847 847 845 845 844 843 843 842 841 841 840 840 839 839 838 838 838 838 838 839 838 839 839 836 835 836 835 836 836 837 837 836 836 835 835 835 835 835 835 835 835 835 835 835 835 836 834 833 832 831 826 815 810 812 816 821 820 820 822 819 813 808 812 817 814 812 811 807 796 784 779 780 781 784 785 782 777 775 772 770 770 771 772 772 771
848 848 847 846 845 845 844 843 843 842 841 841 840 839 838 837 837 837 838 838 838 839 838 839 840 835 831 834 835 834 835 836 837 837 836 835 835 835 835 835 835 835 835 835 834 834 833 834 835 830 829 829 829 824 814 815 821 823 825 821 820 821 819 815 810 811 815 814 814 811 803 794 783 779 778 777 781 782 779 775 772 770 768 767 767 768 768 768
847 847 846 845 845 844 843 843 842 841 841 840 838 838 837 837 837 837 837 838 837 835 833 835 835 829 827 831 834 833 835 836 836 836 835 836 835 835 835 834 834 834 833 831 831 835 834 832 830 825 824 828 833 832 825 829 834 833 832 829 826 822 815 813 811 812 819 817 809 806 801 794 787 781 777 775 777 778 774 772 770 769 768 766 764 763 763 764
846 845 845 844 843 843 842 841 841 841 840 838 838 837 835 836 834 834 837 837 833 831 830 831 832 831 830 832 833 834 835 836 836 836 835 835 834 835 835 834 834 833 833 833 832 838 839 829 823 823 827 834 840 840 838 841 842 839 837 833 829 824 816 813 813 814 820 817 804 799 800 794 788 781 776 773 774 773 770 767 766 765 765 763 761 759 758 759
844 844 844 843 842 842 841 840 840 840 839 838 838 836 835 835 832 831 834 832 830 831 831 832 833 832 832 833 833 834 834 835 836 836 835 835 835 834 833 834 832 829 835 842 838 840 838 824 822 829 833 838 841 843 845 844 845 842 837 831 826 823 817 813 815 816 819 820 805 795 794 788 785 779 771 770 771 768 763 761 758 756 758 759 757 755 753 753
843 842 842 842 841 840 839 839 839 838 839 838 838 837 836 836 834 835 835 831 829 831 832 832 833 832 832 833 833 833 833 834 835 835 835 836 834 833 833 833 830 828 839 844 835 834 830 820 825 835 838 841 843 844 845 843 843 840 834 830 823 819 818 813 815 820 821 819 805 795 795 784 776 773 765 763 765 761 757 755 753 751 752 753 752 751 751 751
841 841 841 841 840 840 839 838 838 838 838 837 837 837 836 836 835 836 836 832 828 830 831 831 831 831 832 832 832 833 833 833 833 834 836 835 834 836 833 831 832 833 837 835 828 824 818 819 830 838 841 841 841 843 844 841 839 836 832 828 819 817 822 815 814 820 818 816 810 804 798 776 761 762 758 758 759 758 757 755 754 754 752 749 749 750 750 750
839 839 839 839 839 839 838 837 837 837 836 836 836 835 835 835 835 835 835 833 829 829 829 828 829 829 829 831 831 831 832 833 833 834 836 835 836 838 833 834 836 834 834 834 833 825 819 829 837 840 843 839 837 839 840 837 829 828 830 828 820 820 830 825 820 821 813 813 817 808 786 757 751 757 752 755 760 758 757 756 754 753 752 752 750 750 749 748
838 838 838 838 838 837 837 836 836 835 835 835 834 834 835 834 835 835 833 830 825 825 828 827 827 827 827 829 829 831 833 834 835 835 836 836 836 837 836 838 835 829 833 840 839 828 825 839 842 839 842 839 837 834 833 833 826 822 824 826 825 826 835 833 827 824 812 805 811 814 793 755 746 753 749 753 759 755 754 753 750 746 746 750 750 749 748 747
836 836 836 837 836 837 837 835 834 834 834 834 833 833 834 833 835 834 832 829 819 819 827 825 824 824 825 828 830 831 829 831 836 836 836 837 836 836 835 838 838 834 839 844 838 829 832 842 843 838 838 838 837 831 830 833 826 820 823 829 830 832 838 836 831 828 817 807 806 817 813 777 749 744 747 756 759 753 751 750 748 745 743 744 745 745 746 746
834 834 835 835 835 836 835 834 833 833 833 832 832 833 833 833 834 833 830 821 809 812 823 824 823 824 824 828 830 827 822 827 836 837 837 837 836 837 833 834 837 837 847 844 825 826 838 842 842 839 837 836 833 826 827 833 826 820 830 836 832 833 835 834 835 829 823 821 812 812 818 802 773 750 748 758 753 743 741 740 742 743 742 741 740 741 742 742
832 833 833 834 835 834 834 833 833 833 833 831 831 833 833 832 833 833 824 808 801 810 818 822 825 824 825 830 830 830 829 832 833 834 839 838 836 837 833 835 836 837 852 841 812 823 842 839 837 837 835 831 826 824 827 830 825 826 837 839 834 837 837 837 839 829 831 833 813 808 818 806 777 747 743 754 749 737 733 733 736 736 736 738 737 739 739 739
830 830 831 833 833 833 833 833 832 833 832 831 833 832 832 833 832 828 821 805 799 810 816 819 825 825 828 831 831 835 836 836 835 834 839 837 836 838 835 840 843 842 851 843 823 832 844 841 840 838 831 826 824 830 833 829 828 834 840 839 838 841 839 843 840 829 838 835 808 811 823 804 770 738 734 747 744 735 731 730 734 733 733 736 735 736 737 737
827 827 829 831 830 831 831 831 832 831 832 832 832 832 833 834 828 821 818 802 791 807 819 819 824 827 828 830 833 838 838 840 844 840 839 838 837 840 841 844 847 846 849 848 839 841 846 848 847 840 833 829 831 837 839 836 836 838 840 837 835 838 842 845 842 838 834 816 806 825 832 817 785 740 724 734 732 729 730 729 732 732 732 733 732 733 733 734
824 825 827 828 828 829 829 830 830 829 832 831 831 834 832 830 825 815 810 794 787 809 821 821 828 828 827 827 828 836 840 842 848 841 835 838 837 839 841 838 839 841 838 837 838 843 848 846 841 841 840 837 835 837 840 841 840 838 840 839 828 823 832 832 833 838 814 785 808 841 840 831 802 750 722 725 727 728 730 730 731 730 729 730 730 730 730 732
822 823 824 825 825 826 827 828 827 828 832 830 832 834 827 825 822 809 800 788 787 805 813 819 829 828 828 828 825 837 842 839 846 844 839 841 838 835 833 827 827 821 811 815 824 829 836 842 842 841 841 840 834 831 836 839 838 837 838 838 820 803 806 805 803 812 795 783 821 849 839 825 795 754 734 729 727 727 725 726 727 727 727 727 727 726 726 730
819 820 821 823 822 823 825 826 827 829 829 830 833 831 825 820 810 798 792 785 790 807 815 821 830 830 829 824 824 840 842 836 843 845 844 846 839 833 832 836 838 821 806 814 818 809 812 832 848 842 834 838 832 822 822 826 832 834 830 827 814 802 805 803 797 800 794 795 824 845 836 811 773 743 734 729 724 723 723 724 724 724 726 724 724 724 725 727
817 818 818 819 820 821 823 825 827 827 828 832 831 828 825 814 799 791 788 790 803 817 821 825 830 831 828 822 828 839 832 833 846 844 841 843 837 830 830 839 844 831 823 824 815 806 798 802 828 836 828 831 831 823 818 819 826 833 835 832 820 812 810 805 799 798 796 799 817 836 825 789 754 728 720 721 721 721 722 722 722 723 724 724 724 724 724 724
814 815 815 817 818 818 820 823 825 827 829 830 828 824 815 799 791 787 783 792 809 817 823 829 826 823 823 825 833 837 825 827 843 842 837 834 828 823 820 828 837 831 824 813 808 824 818 803 823 837 832 832 829 828 829 823 824 834 841 835 822 817 812 809 814 818 823 822 816 818 800 764 742 724 716 721 720 719 721 719 722 723 721 724 724 722 722 719
811 812 812 813 813 814 818 820 823 826 827 828 827 818 800 785 782 780 777 786 799 808 818 822 818 814 815 817 826 834 828 828 839 836 831 832 826 821 820 822 830 826 814 801 801 818 816 809 831 839 833 837 830 828 834 824 820 831 833 823 821 829 821 815 825 834 842 829 800 792 779 753 739 724 716 725 722 718 720 717 719 720 718 721 721 719 718 716
806 806 807 808 809 811 815 817 821 824 825 827 820 804 790 782 778 777 782 788 793 800 802 795 796 800 800 803 815 829 828 825 833 826 820 825 817 815 822 820 820 819 812 808 804 804 799 801 830 838 828 835 837 832 836 832 828 827 821 819 825 833 827 821 822 820 819 808 786 781 774 755 746 731 716 719 717 713 718 718 718 717 717 719 717 716 715 714
801 803 803 801 803 807 811 816 819 820 824 825 814 797 789 785 779 779 786 790 790 795 791 778 780 789 791 792 804 826 825 814 822 820 812 813 803 802 814 812 815 819 818 818 808 804 802 795 819 841 830 831 840 832 827 833 836 827 820 825 824 820 821 826 823 811 806 802 785 777 773 758 746 733 717 712 709 708 713 716 717 715 714 714 712 711 711 711
798 800 797 794 798 803 808 812 815 818 822 819 806 793 788 784 782 784 785 784 783 786 783 772 774 786 791 791 799 820 821 808 815 815 801 799 795 796 803 803 813 820 820 822 810 806 809 793 803 834 833 829 836 828 818 823 835 834 826 828 826 818 817 819 820 815 810 806 793 781 773 748 725 719 716 710 706 707 710 712 712 711 709 708 708 707 707 708
792 795 789 787 793 798 804 810 813 815 813 805 793 786 784 781 781 784 783 781 779 778 776 770 773 782 790 797 801 808 813 811 814 810 798 796 792 791 797 799 810 821 821 823 814 808 814 802 799 824 834 827 821 815 808 809 824 831 826 827 829 826 824 822 821 818 811 808 807 801 782 741 710 708 710 706 705 706 708 710 709 707 706 706 707 706 706 706
788 789 782 781 788 793 801 806 805 805 802 794 787 783 782 778 778 782 785 784 780 779 778 773 772 777 783 793 795 799 810 814 812 808 802 800 790 784 793 798 806 817 819 820 814 807 811 806 801 818 830 820 806 806 807 804 809 815 814 818 820 818 822 821 815 813 813 811 805 804 792 748 708 705 707 705 706 706 707 710 708 707 707 706 706 705 705 705
782 781 775 777 784 788 795 797 795 797 795 787 781 779 778 774 775 780 784 786 784 782 783 780 776 777 779 782 786 793 802 807 810 807 800 796 788 782 792 800 804 807 807 808 810 806 809 809 806 810 813 807 805 813 816 810 807 809 808 808 809 810 811 806 800 803 813 813 801 806 807 755 703 702 709 705 706 707 708 710 710 710 708 706 705 703 702 702
771 772 772 774 777 782 790 793 791 790 787 780 776 775 774 773 773 777 781 783 782 780 782 782 779 778 776 777 784 790 790 793 800 799 793 793 791 788 796 800 802 803 800 800 805 808 809 807 804 800 797 803 813 819 820 816 813 811 807 805 806 807 802 796 796 798 806 809 801 810 806 748 698 702 708 705 710 711 709 709 708 709 707 704 703 700 699 699
764 768 772 773 775 778 781 778 776 779 780 780 779 775 774 774 772 773 776 775 775 776 777 779 776 774 774 776 780 782 780 781 786 787 788 790 791 795 801 800 798 798 794 792 795 799 800 799 799 796 789 793 802 807 813 817 816 807 799 801 803 801 802 803 803 806 806 797 791 800 784 728 697 705 707 706 710 706 703 703 701 703 703 700 699 698 696 696
762 766 769 770 771 772 768 761 762 771 776 778 778 773 772 772 768 766 767 767 769 770 769 771 771 770 776 780 780 780 777 774 777 782 786 790 793 799 803 800 796 792 792 794 792 791 794 796 795 788 776 767 765 773 786 798 808 805 796 798 800 799 803 803 804 810 804 788 785 785 757 711 694 700 700 701 704 700 697 696 695 697 698 697 697 695 693 693
750 755 761 767 768 765 761 759 761 765 767 772 774 769 766 766 764 765 765 762 765 767 766 769 771 772 777 780 780 782 780 777 780 784 787 790 792 798 804 803 798 795 796 798 793 792 799 802 795 784 772 758 753 767 783 788 794 797 792 792 796 796 797 797 800 799 789 783 777 760 743 725 706 698 698 698 698 696 693 692 692 694 694 694 694 692 691 690
736 736 742 750 757 761 759 760 762 758 755 760 762 758 758 760 760 763 765 761 760 763 766 770 769 767 770 775 777 779 780 782 786 788 788 788 790 797 804 804 801 799 800 798 792 794 801 799 794 791 786 774 768 779 790 788 785 785 784 785 788 791 793 795 793 781 776 782 764 736 740 744 719 700 700 697 693 692 691 690 691 692 692 692 691 690 688 686
726 722 722 722 728 739 742 741 746 749 749 751 749 747 750 753 754 755 758 762 762 759 761 766 765 758 757 763 766 770 779 786 788 787 784 784 788 794 799 802 801 799 800 798 792 791 794 791 790 794 792 783 779 783 787 789 787 783 781 779 780 784 787 787 782 772 771 771 748 726 735 737 715 703 700 694 692 693 691 691 691 692 692 690 688 688 686 682
721 719 720 717 712 714 716 716 726 741 746 745 743 741 740 741 741 742 749 758 762 758 752 752 754 754 754 755 754 760 771 774 777 781 779 779 784 787 788 792 795 797 798 796 794 792 791 787 789 795 795 789 785 783 785 788 787 783 780 777 775 776 776 774 770 766 765 759 741 733 736 727 710 702 697 690 692 695 694 693 692 692 690 688 688 687 683 680
709 707 710 714 710 708 711 715 725 737 740 741 740 735 730 729 728 731 739 744 748 753 750 742 743 749 752 751 748 749 752 749 751 761 769 774 780 781 778 777 784 797 798 792 793 794 789 787 793 800 800 792 785 783 784 784 784 781 777 772 771 772 771 768 763 761 762 756 743 741 744 729 704 694 696 695 694 697 697 694 692 690 688 688 687 685 681 678
700 697 699 705 705 703 707 713 720 726 731 736 734 725 722 721 717 721 731 729 726 733 738 736 738 745 750 750 744 740 741 740 740 746 755 762 766 767 768 767 775 790 795 791 792 792 791 793 799 804 798 783 780 786 786 783 785 785 778 770 769 769 764 757 752 750 751 748 744 748 748 725 695 688 696 695 693 696 694 690 690 688 686 687 685 682 679 676
704 701 699 700 697 694 697 703 710 715 716 717 716 711 711 712 711 717 726 723 717 719 722 726 733 740 746 745 736 731 735 741 744 747 751 755 757 759 763 765 767 776 785 789 789 789 791 791 794 799 791 779 784 792 790 788 783 768 754 748 748 750 749 746 741 738 738 738 739 738 725 701 686 689 694 691 688 690 688 685 688 687 685 685 683 680 677 674
Wind_Speed
8 8 8 8 8 9 9 9 9 9 9 10 10 10 11 12 11 11 12 12 12 12 12 13 13 13 10 7 4 0 3 12 17 20 16 10 11 13 13 13 14 15 15 13 15 13 10 11 12 13 5 2 2 1 1 2 1 2 4 7 9 9 7 5 7 7 9 10 8 7 8 7 7 1 3 4 5 7 6 4 2 2 3 4 3 4 8 8
8 8 9 9 8 9 8 9 9 8 9 9 9 10 11 11 11 11 11 12 12 12 13 13 13 13 11 7 5 2 1 4 12 17 13 9 12 13 11 12 13 14 14 11 12 11 7 8 7 7 4 1 2 2 2 2 2 4 3 7 9 6 6 7 8 9 8 10 12 11 7 7 8 5 5 6 5 4 7 7 5 6 7 6 2 6 9 9
8 8 9 9 8 9 9 9 9 9 9 9 10 10 10 11 11 11 11 12 12 13 13 14 14 13 12 9 4 2 1 2 5 9 9 10 12 12 10 11 12 14 13 9 8 8 5 5 5 4 1 2 3 2 2 3 2 2 2 8 7 5 8 6 6 8 8 9 12 11 8 8 7 5 6 6 7 7 8 5 4 7 5 2 5 8 10 10
8 8 9 9 8 8 9 9 9 9 9 9 9 9 9 10 10 11 10 11 12 12 13 14 14 13 12 9 4 2 2 2 1 4 7 11 11 10 9 10 11 13 12 8 6 7 5 2 2 3 1 3 3 1 3 4 2 1 2 8 5 6 8 7 6 8 8 8 10 11 11 10 5 4 6 8 9 9 7 1 1 6 6 7 9 9 9 9
8 8 8 8 8 8 8 8 8 8 8 8 8 9 9 9 9 10 10 10 11 12 12 13 13 13 11 8 4 3 4 2 2 3 8 11 9 7 7 8 10 12 10 7 5 6 5 2 1 2 2 3 4 1 4 4 3 2 5 5 6 6 8 9 9 7 7 9 9 10 11 9 6 5 5 7 11 7 2 2 1 3 6 8 9 9 8 6
8 8 8 8 8 8 8 8 8 8 8 8 8 8 8 9 9 10 10 10 11 12 12 13 13 12 9 6 3 4 4 1 2 3 9 10 8 7 5 6 9 9 9 7 6 6 6 4 1 2 2 3 4 3 3 4 2 4 5 3 3 4 8 10 10 9 7 9 10 9 9 7 8 9 3 5 11 6 6 4 2 2 3 6 8 8 7 6
8 8 8 8 8 8 8 8 7 8 8 8 8 8 8 8 9 9 10 11 11 12 13 13 13 12 7 3 3 3 1 2 2 5 9 9 8 7 5 5 7 7 9 10 7 5 5 6 4 3 2 4 3 3 4 4 2 5 6 4 6 6 9 11 10 12 10 9 10 8 8 8 11 10 2 5 10 5 5 5 7 6 5 5 7 7 6 5
8 8 8 8 8 8 7 8 8 8 8 8 8 8 8 8 9 9 10 11 11 11 12 13 12 11 7 1 1 1 1 3 1 5 8 8 8 7 6 4 6 8 9 10 7 3 3 5 5 1 1 4 1 2 4 5 3 4 6 6 8 9 11 12 11 12 11 9 9 8 9 12 11 5 4 10 8 1 3 5 7 9 8 7 7 7 6 5
8 8 8 8 8 8 8 8 8 8 8 8 8 9 9 9 9 10 10 11 11 11 11 12 12 11 6 1 1 2 2 4 1 5 7 7 8 7 6 4 5 7 7 8 6 3 1 2 2 2 1 6 1 1 3 4 0 0 6 9 11 12 12 12 11 11 10 7 6 8 12 12 5 0 7 10 3 1 4 6 7 9 10 10 8 6 6 5
9 9 9 8 9 9 9 8 8 9 9 9 9 9 9 10 10 10 10 10 10 10 11 12 10 9 5 0 2 2 3 4 0 5 6 7 7 6 5 5 5 5 4 5 5 5 3 2 1 1 2 5 1 1 0 2 2 3 8 11 12 14 12 9 9 9 9 7 5 8 13 10 2 3 8 3 1 2 5 7 7 8 10 10 9 6 5 6
9 9 9 9 9 9 9 9 9 9 9 9 9 10 10 10 11 10 10 10 10 9 10 11 9 9 6 1 3 1 4 3 1 5 7 6 7 4 3 4 4 2 2 3 3 3 3 3 2 2 1 2 1 1 2 0 4 6 9 11 11 12 9 5 7 7 6 5 4 7 12 9 4 7 7 1 1 4 6 9 8 8 9 9 10 8 6 5
10 10 10 10 10 10 10 10 10 9 9 9 10 10 10 10 11 11 10 10 9 8 9 9 8 9 6 1 1 2 5 3 1 4 7 7 7 3 1 3 3 1 0 1 1 1 2 3 3 2 1 1 2 2 2 0 4 6 6 8 10 10 6 3 4 5 5 3 6 8 10 10 9 9 5 1 2 5 6 10 9 9 9 8 9 9 8 6
11 10 10 10 10 10 10 10 10 10 9 9 10 10 11 11 11 11 10 10 9 7 7 8 7 7 3 1 2 4 4 2 2 4 6 7 7 2 1 2 1 2 1 0 0 2 4 3 2 0 1 2 2 2 1 2 3 4 3 4 8 8 3 4 3 7 6 2 8 8 8 8 6 6 3 4 4 5 7 9 9 8 7 7 7 7 9 8
10 10 11 10 11 11 10 11 10 9 10 10 11 11 11 11 11 11 10 10 9 7 6 7 5 4 1 1 2 4 3 2 2 4 6 8 5 2 2 1 3 1 1 2 1 2 4 4 1 2 1 2 2 2 4 2 1 3 3 3 3 4 3 5 3 7 7 1 9 8 8 8 3 3 3 5 4 5 7 8 8 7 6 7 7 7 8 8
11 11 11 11 11 11 11 11 11 10 10 11 11 12 12 12 12 11 11 10 8 6 6 6 4 2 1 1 2 5 4 2 1 5 7 8 4 1 2 2 3 1 1 2 3 3 4 4 2 1 1 2 3 3 3 1 2 2 3 2 2 4 6 5 2 3 5 5 9 7 7 9 8 4 4 5 3 5 7 8 8 8 8 7 7 7 8 8
11 12 12 12 11 12 11 11 11 11 10 11 12 13 12 12 12 11 9 6 6 6 5 4 2 1 2 1 3 5 4 3 0 4 7 5 3 3 2 2 1 1 3 4 5 5 2 2 1 1 2 1 2 3 2 1 1 1 2 4 4 5 7 7 1 4 4 8 7 5 6 10 11 6 3 5 3 5 8 10 9 9 9 8 7 7 6 7
11 12 12 12 12 12 11 11 11 10 10 11 12 13 12 11 10 7 4 3 4 4 3 2 1 1 2 2 3 5 3 2 1 3 6 2 2 5 3 2 3 4 5 5 6 3 1 1 0 1 0 1 1 2 3 2 1 0 2 3 4 5 7 7 4 2 6 10 8 8 10 13 15 12 10 8 5 7 10 11 11 10 9 8 6 7 7 7
10 12 12 11 11 11 11 11 10 9 10 11 11 13 11 9 5 3 3 2 1 1 1 1 0 2 3 3 3 3 5 4 1 3 4 2 1 4 4 2 3 4 4 3 2 0 1 0 1 1 1 1 1 2 3 2 2 3 3 4 4 6 6 8 8 5 8 11 10 12 12 15 19 16 14 11 7 9 12 12 11 11 11 10 8 8 8 8
10 11 11 10 11 11 10 10 9 9 10 10 11 10 7 3 1 3 3 2 1 1 1 2 3 2 1 3 3 3 5 4 1 3 4 2 0 2 4 4 2 3 3 2 1 2 1 1 2 2 1 1 2 2 3 1 2 4 4 5 6 8 8 9 10 5 5 10 11 11 11 14 19 18 18 16 10 10 14 13 12 11 11 10 9 9 9 9
11 10 10 10 11 11 10 9 8 9 10 11 12 8 2 1 1 2 2 4 4 1 1 2 2 0 1 2 3 4 4 3 1 3 5 3 1 1 1 2 1 3 1 1 1 2 2 2 2 1 1 1 1 1 2 1 3 5 5 6 7 9 9 8 9 3 2 7 9 9 12 16 18 18 20 18 14 14 16 16 14 12 11 10 11 11 11 11
10 11 11 10 11 10 9 9 8 8 9 10 10 5 1 1 1 0 0 4 4 2 1 1 1 1 0 1 2 4 3 2 2 1 5 5 1 2 1 0 3 3 1 0 1 0 2 3 2 2 3 2 1 1 1 2 4 5 6 7 7 8 9 10 9 3 1 4 9 12 16 17 16 17 18 16 14 16 17 16 16 15 12 11 12 14 13 10
10 12 13 11 10 10 9 8 7 7 9 9 6 2 1 1 0 1 2 4 3 3 2 2 1 2 1 1 2 3 3 2 3 1 5 5 0 2 1 2 4 3 2 2 2 2 3 3 4 4 3 3 2 3 3 4 5 5 5 6 7 5 7 9 5 1 2 4 9 15 16 17 17 17 18 16 14 16 16 16 16 14 12 12 13 13 12 10
11 12 13 10 9 10 9 7 7 8 9 7 4 2 2 1 1 1 1 3 2 3 4 4 4 4 3 2 4 5 3 2 3 2 5 4 1 1 1 3 3 3 3 4 4 2 2 2 5 6 4 4 3 3 4 4 5 6 5 5 7 5 5 6 1 4 9 7 10 14 14 15 14 12 13 11 10 12 13 15 14 13 13 13 12 10 10 11
11 11 12 9 9 10 8 7 7 8 8 6 5 4 3 2 1 1 1 2 2 2 3 3 3 4 4 3 5 6 2 0 1 1 5 3 2 0 1 2 2 4 3 2 3 4 2 3 5 5 4 5 4 4 5 5 4 5 7 7 8 6 5 7 6 10 13 6 5 12 12 10 5 4 8 4 3 8 9 9 11 11 12 12 11 11 12 12
11 12 12 9 8 8 6 6 7 8 7 5 5 6 4 2 2 1 2 2 2 1 2 4 3 4 6 5 4 4 2 2 1 2 4 3 2 1 1 1 1 4 4 3 2 4 2 3 4 5 5 5 5 4 5 4 4 5 6 7 8 7 4 7 10 11 9 3 3 10 9 5 1 6 10 3 3 8 7 7 11 11 10 9 10 11 11 11
12 12 13 10 7 7 5 4 4 4 4 4 5 6 5 3 2 3 1 1 3 2 4 4 3 6 8 4 3 5 3 2 2 2 2 2 0 1 1 2 1 1 4 3 2 3 1 3 3 5 5 6 6 5 4 4 5 4 1 2 4 4 4 7 9 8 6 6 5 5 4 6 8 10 7 3 6 10 7 7 11 10 8 8 8 9 9 10
12 12 14 10 7 6 4 2 2 3 2 4 6 7 5 3 3 3 2 2 3 3 4 1 1 4 7 2 2 5 2 1 3 3 3 2 1 1 2 3 1 1 2 2 2 1 4 5 4 4 5 6 5 5 5 7 5 3 2 1 2 5 7 7 7 7 5 8 9 4 4 6 9 8 1 1 9 11 8 7 6 6 6 7 8 8 9 10
12 12 13 10 7 8 7 4 2 3 3 4 7 7 4 3 4 3 1 2 2 3 4 1 2 3 4 2 1 2 1 1 3 2 3 3 2 0 2 2 2 3 2 3 3 1 2 5 6 6 6 6 4 1 4 9 5 2 3 1 3 4 6 5 6 7 5 7 6 3 3 5 8 7 2 0 6 8 7 6 4 4 4 5 6 7 8 8
14 13 12 10 8 10 12 10 6 5 3 5 7 6 4 4 4 2 0 2 1 3 3 3 4 3 3 3 2 3 2 1 1 2 2 2 3 2 1 1 3 4 2 3 3 1 1 1 1 4 6 4 2 2 2 7 4 2 2 2 2 1 2 1 4 6 3 5 4 2 3 4 7 9 3 1 2 5 6 6 5 5 5 5 6 6 6 6
16 13 12 11 10 10 11 12 13 9 4 6 7 5 5 4 3 2 2 3 2 3 2 3 3 2 5 6 2 1 1 1 2 3 1 2 3 3 2 2 3 3 1 3 4 2 1 2 2 3 3 1 2 3 1 2 0 1 1 4 4 3 1 1 1 3 3 4 2 1 2 3 6 8 5 2 2 2 4 6 7 8 8 7 6 6 6 5
15 13 13 12 12 12 8 8 14 13 7 7 7 5 5 2 1 3 4 2 1 2 2 3 2 2 6 5 2 1 1 1 2 1 2 2 1 3 2 3 2 2 2 3 5 2 1 2 3 1 1 1 2 2 1 2 1 1 1 3 5 3 2 2 2 2 3 3 1 1 3 4 6 7 4 3 4 4 7 8 9 10 10 8 7 7 6 5
16 14 14 14 13 15 11 5 8 12 12 9 8 4 3 2 2 4 3 2 1 2 2 2 1 3 5 2 0 2 1 0 1 0 2 2 2 4 3 3 2 2 3 2 2 1 2 3 1 1 1 4 5 4 2 2 2 2 2 2 5 3 1 2 1 2 3 1 2 1 2 4 9 12 11 13 14 14 12 10 10 11 11 9 9 8 6 4
18 16 14 16 17 18 16 9 4 11 14 10 6 3 1 4 5 4 4 2 1 1 2 3 2 3 5 3 2 2 0 1 2 1 2 2 2 4 4 2 2 2 2 1 1 1 2 1 2 2 2 5 9 5 2 3 4 4 2 1 3 3 3 3 3 2 3 1 2 3 2 5 8 9 12 16 15 13 12 12 12 11 11 11 9 8 6 5
18 17 17 18 20 19 18 13 8 12 15 10 5 2 3 5 3 3 4 2 1 2 3 3 3 3 2 2 2 3 2 1 3 2 2 3 2 3 4 4 5 2 1 1 2 2 3 1 3 5 1 6 11 5 2 2 4 3 1 1 2 2 3 4 2 3 5 5 1 3 2 5 5 4 6 10 11 9 10 10 10 10 9 9 8 8 7 7
20 19 19 19 20 20 18 16 13 14 14 8 3 4 6 5 2 2 3 3 2 3 3 2 4 5 2 2 1 2 3 2 3 3 3 4 3 3 3 6 9 7 3 3 2 1 3 3 2 2 0 6 9 2 1 2 3 2 2 1 2 0 2 3 2 2 4 6 3 3 4 6 7 11 13 12 10 8 8 7 7 7 7 6 6 7 7 6
21 20 19 20 22 21 19 18 17 17 13 6 5 7 6 3 2 3 3 4 4 7 8 3 3 5 3 3 3 2 1 1 4 3 4 5 5 4 3 3 9 11 5 3 2 2 2 1 2 2 2 5 3 1 1 2 0 3 3 2 1 2 2 3 1 1 1 5 4 3 6 7 7 10 9 6 6 6 6 7 6 5 5 5 6 6 6 6
23 19 17 18 22 22 21 20 19 18 11 6 7 8 4 2 3 3 3 4 4 7 8 4 4 6 4 3 3 4 3 3 5 4 3 4 4 5 5 3 7 13 7 1 1 2 2 0 2 1 3 4 1 0 1 2 1 2 2 2 3 1 1 1 2 2 2 5 4 3 8 10 6 4 2 3 6 5 4 5 5 6 6 7 8 8 8 8
22 15 12 17 24 23 21 24 23 16 8 7 11 9 4 4 2 2 4 4 4 4 5 5 5 5 5 4 3 5 5 4 6 5 3 4 3 5 6 3 5 9 5 1 1 1 2 2 1 0 2 4 2 2 2 1 1 2 1 2 1 1 2 1 2 3 3 6 5 3 7 9 6 5 5 7 8 5 3 4 6 8 9 8 8 8 8 8
20 9 6 16 25 23 24 28 21 12 7 9 12 9 4 4 3 2 5 4 3 4 5 6 4 2 3 4 3 5 5 5 7 5 4 4 3 4 7 3 4 6 4 2 2 1 1 3 1 1 1 4 4 4 4 4 3 1 1 2 1 2 1 1 1 1 2 5 6 4 5 6 6 6 6 11 12 9 7 5 7 9 9 8 8 8 8 7
15 6 3 12 23 25 29 27 15 10 10 8 8 6 3 3 4 4 5 3 1 3 4 5 5 4 4 4 3 4 5 4 6 4 3 3 2 4 6 4 5 7 5 2 2 1 2 2 2 2 2 4 4 5 6 7 7 4 5 5 3 2 1 2 2 2 2 3 5 5 6 8 8 6 10 15 14 11 9 9 9 10 10 10 10 10 9 8
10 6 4 14 27 32 30 19 9 9 10 6 4 4 3 2 3 4 4 3 1 0 1 2 4 4 4 4 3 4 5 3 5 4 3 4 4 4 4 5 8 10 7 4 4 4 3 2 2 4 4 5 4 2 3 5 7 6 6 6 6 6 4 2 4 4 4 4 4 5 7 12 10 4 6 11 9 8 9 9 9 11 12 12 11 11 10 10
7 5 8 23 37 37 24 11 8 8 9 8 4 3 4 3 3 5 5 3 1 1 0 0 1 3 5 4 3 6 6 4 5 5 4 5 5 3 3 6 10 11 8 4 3 2 2 1 2 3 5 4 0 2 2 2 3 3 4 5 6 6 6 5 4 3 5 4 4 3 7 11 7 3 3 5 4 5 6 7 9 10 11 12 13 13 13 12
7 4 10 32 45 36 17 8 10 10 10 5 1 3 4 3 3 6 6 6 4 3 3 2 2 3 4 3 4 7 7 5 6 7 4 5 5 1 5 10 12 10 6 3 3 4 2 2 3 3 3 2 2 2 1 2 1 3 5 6 7 7 8 5 1 1 3 5 5 3 7 11 5 4 4 2 2 5 7 8 10 9 9 12 14 14 13 13
6 4 5 27 45 32 13 9 10 12 11 4 2 6 3 1 5 7 8 10 8 5 5 4 4 3 3 4 4 7 9 6 7 8 4 4 3 1 4 11 14 10 6 2 3 6 4 3 4 3 2 3 2 2 2 2 4 6 7 8 10 9 8 3 0 1 4 8 11 7 8 11 3 3 4 4 4 9 11 12 12 10 9 11 12 12 11 12
4 3 1 16 33 25 10 6 5 8 13 10 8 10 7 3 6 8 9 10 7 6 5 4 4 4 4 4 2 4 8 6 4 6 4 3 3 1 2 9 12 9 3 0 2 6 5 3 4 5 5 5 3 1 1 3 5 5 7 11 14 13 13 7 3 6 8 8 12 11 11 12 10 9 11 11 11 14 16 16 13 9 9 10 11 12 11 11
4 4 4 6 12 14 8 3 4 6 13 13 8 10 12 9 4 5 8 8 7 7 4 1 4 5 4 7 5 3 8 5 1 3 3 4 3 0 2 7 9 5 1 1 5 5 2 2 6 7 7 7 3 1 3 4 5 6 8 12 14 14 16 12 6 8 8 5 10 16 15 16 22 22 19 16 15 16 16 14 11 9 10 11 11 12 12 12
6 4 9 8 4 8 8 6 7 7 9 13 8 7 14 14 6 4 7 6 6 9 4 1 6 8 9 11 7 4 7 5 2 3 4 4 2 1 2 4 6 6 4 3 6 5 2 4 7 8 10 11 7 2 4 4 5 8 9 12 14 15 17 16 14 11 6 4 11 12 13 17 24 23 20 20 19 17 16 14 13 13 14 14 13 13 14 13
8 4 8 13 8 9 12 14 16 12 10 13 9 7 13 15 11 9 7 4 4 9 7 4 9 13 14 15 9 5 7 5 3 5 6 5 4 3 3 3 5 8 6 4 5 5 3 4 5 6 10 13 11 7 5 6 9 10 11 14 14 15 18 20 21 17 10 11 15 9 10 18 23 22 22 22 19 17 16 16 16 16 16 16 15 14 15 14
5 1 4 11 10 12 18 21 21 17 13 13 11 10 14 17 18 12 6 5 5 9 11 10 13 16 15 14 10 8 10 8 6 8 7 5 6 5 4 3 4 6 8 7 5 4 4 4 4 5 7 11 12 12 9 10 12 13 16 18 17 18 21 22 23 22 19 21 24 20 20 24 23 23 25 23 19 15 15 16 17 17 17 15 14 14 15 14
7 3 5 9 9 10 13 14 15 15 13 12 11 13 15 18 19 12 7 9 10 8 12 16 14 15 15 13 12 11 13 14 11 10 10 8 6 6 6 4 4 6 9 10 6 5 6 3 2 4 4 8 10 10 10 11 13 14 16 19 18 19 21 22 22 21 21 24 28 27 25 24 23 22 21 20 17 13 14 16 16 15 14 13 13 14 14 13
12 7 4 6 9 11 12 11 13 14 12 10 11 14 15 18 20 15 9 13 15 13 15 18 14 12 12 14 15 14 15 16 11 8 13 12 8 7 6 4 7 8 10 10 7 7 7 2 3 3 4 5 4 4 7 8 10 14 17 18 18 18 18 19 20 19 20 23 24 21 17 18 19 14 10 12 13 12 15 15 12 12 12 11 13 14 14 13
10 8 3 4 9 12 12 12 14 12 11 14 16 16 15 16 17 14 10 12 18 17 15 18 17 11 10 18 23 17 14 13 7 4 7 8 5 4 4 4 8 10 10 10 8 7 7 4 2 3 4 3 2 1 2 4 8 10 12 16 20 21 20 19 17 19 22 21 16 13 14 17 15 7 6 12 14 12 12 10 8 10 12 13 14 14 13 12
Wind_Direction
354 355 354 355 355 355 355 355 358 1 358 357 360 0 358 357 357 359 359 358 359 357 358 359 355 358 357 357 5 256 48 41 47 51 55 36 360 354 351 349 349 357 4 1 5 11 9 9 5 357 356 120 2 355 30 7 17 240 232 249 255 260 273 327 326 325 330 320 332 344 351 303 271 329 348 309 255 254 276 258 224 185 182 171 137 13 345 336
347 349 350 349 348 349 351 351 351 354 353 352 356 358 356 356 354 354 357 354 354 354 353 352 350 353 350 347 350 301 221 23 45 51 43 19 2 359 354 356 356 360 6 2 8 12 5 4 352 343 358 62 13 360 351 23 345 254 241 262 259 277 314 350 343 339 338 317 321 325 337 324 305 331 338 292 255 257 268 245 215 215 197 182 111 12 348 351
343 343 346 345 344 343 346 349 347 347 346 346 350 351 353 354 351 349 352 351 350 349 349 347 347 348 343 345 332 273 204 299 37 40 21 11 3 358 359 359 359 2 5 360 10 17 8 360 327 315 8 69 44 14 21 29 323 284 269 261 262 335 327 328 344 339 336 323 315 314 324 314 310 333 323 289 275 271 266 262 241 238 219 230 357 5 352 349
341 338 340 340 340 338 338 342 341 342 341 341 343 342 346 349 347 346 346 348 348 345 347 345 346 346 340 343 323 244 198 254 51 12 356 8 358 357 2 356 2 4 1 355 11 27 24 15 316 344 34 80 59 71 60 34 338 360 266 267 302 342 310 304 336 333 322 322 309 306 308 300 319 335 296 289 278 260 249 285 322 285 316 329 337 348 344 344
339 336 337 336 334 333 331 332 333 335 334 335 337 337 340 340 342 345 342 344 346 341 342 343 342 342 340 339 320 202 190 240 95 8 357 5 352 0 2 356 5 3 1 2 21 31 27 15 284 25 42 54 38 55 70 40 352 291 257 282 331 327 301 306 324 322 312 314 300 293 297 305 326 297 278 285 275 276 308 77 123 282 317 320 323 329 328 331
333 333 332 331 331 328 326 324 323 324 324 326 329 333 334 335 338 342 341 339 341 339 336 340 341 339 339 350 16 161 195 316 76 6 4 6 354 6 359 2 9 359 10 31 39 33 34 20 360 66 56 69 39 26 39 18 336 273 266 282 315 310 303 306 313 310 307 301 286 287 301 316 303 281 282 269 269 313 11 349 306 275 283 297 302 307 313 313
327 328 326 327 326 323 323 319 316 316 317 319 321 327 329 333 334 336 340 337 337 337 334 339 340 340 339 353 60 134 189 62 68 358 9 8 3 13 7 17 14 6 26 39 36 30 41 31 51 81 65 91 51 19 12 337 242 251 277 287 304 312 300 298 305 302 297 281 274 288 299 288 275 280 313 257 268 312 352 326 309 299 284 274 278 281 290 298
324 324 322 322 321 319 319 316 315 313 312 315 318 324 325 329 332 332 335 335 338 335 333 339 338 341 343 318 217 213 77 104 80 359 13 12 16 23 19 28 20 25 39 40 31 12 28 35 58 76 29 88 49 351 12 325 224 229 284 307 310 306 295 296 297 291 288 277 273 276 273 268 268 288 289 264 267 300 316 309 296 296 292 269 263 271 276 279
321 322 322 320 319 317 317 316 313 311 312 314 317 321 324 327 328 329 332 333 337 336 334 337 338 342 342 355 241 254 108 135 187 1 12 17 23 22 21 29 25 30 44 42 28 359 3 41 29 312 86 103 180 328 20 322 60 132 299 310 305 298 297 299 293 286 287 284 286 278 267 265 261 311 266 259 263 7 302 293 287 291 288 277 267 267 273 274
319 319 320 320 320 316 315 316 313 312 311 313 317 319 323 326 325 327 330 332 334 336 335 333 337 347 347 171 231 249 130 144 126 1 1 10 14 15 16 11 18 28 43 41 23 27 61 85 30 307 117 110 155 320 357 285 355 328 301 300 291 290 292 291 287 290 296 284 281 285 275 271 214 218 253 245 57 318 293 279 278 283 280 282 278 272 270 270
320 319 322 322 321 318 316 315 313 313 314 316 319 320 323 323 324 325 325 328 331 331 335 333 338 352 355 209 231 206 134 157 312 355 351 358 356 4 10 350 2 16 43 51 38 57 88 108 128 207 155 119 177 251 199 306 329 306 307 299 287 287 280 281 289 301 313 287 301 302 279 271 209 221 247 87 17 271 283 278 271 272 274 280 279 280 276 268
318 318 321 322 319 317 316 316 313 312 314 317 316 319 322 320 320 321 321 324 326 326 329 324 335 352 345 237 204 115 134 172 268 343 345 351 347 357 26 328 334 308 295 44 56 153 157 149 172 214 67 164 256 303 173 107 306 293 303 297 299 295 276 314 316 322 322 296 344 323 275 259 218 215 238 180 246 253 267 273 269 267 267 272 275 278 276 275
315 317 318 320 320 318 316 316 314 311 312 313 315 316 317 317 316 316 317 317 316 321 319 308 330 354 323 214 114 135 148 180 264 333 338 347 351 13 32 314 228 151 201 323 276 197 182 190 230 346 108 230 302 346 233 235 277 283 277 278 309 299 278 33 3 324 312 276 356 333 273 270 212 192 217 197 223 247 260 266 267 267 261 265 264 269 272 271
316 317 319 320 320 318 316 316 315 313 313 312 312 315 314 315 314 313 312 309 309 305 298 300 332 358 295 165 140 180 185 196 287 339 343 355 12 68 28 53 151 142 247 209 199 198 184 194 213 111 129 293 323 290 260 219 198 306 290 232 309 300 319 30 39 337 331 356 354 329 273 281 233 185 193 190 213 235 261 268 267 269 262 264 259 261 268 265
318 320 321 321 320 318 316 317 317 313 311 311 313 315 315 314 314 313 308 304 299 286 287 302 327 351 219 191 182 198 205 208 326 354 350 1 31 61 12 143 176 292 224 176 159 146 169 194 191 115 52 296 267 271 272 187 133 343 310 268 313 304 312 344 83 25 347 328 334 322 280 286 284 271 181 173 220 235 256 266 269 272 262 263 261 261 265 266
315 319 318 318 317 316 316 314 315 314 309 311 314 314 313 314 314 312 310 298 280 282 297 305 326 296 236 168 159 188 205 211 181 359 351 2 26 10 18 144 163 142 125 128 135 119 124 200 163 337 324 262 261 300 289 226 159 111 337 311 313 307 312 326 92 110 355 323 317 304 291 290 293 297 216 206 255 262 260 258 261 269 264 260 256 258 264 267
312 316 314 314 313 314 316 314 314 313 311 313 314 313 310 308 306 302 302 285 277 298 303 309 357 288 247 126 152 180 177 188 178 3 357 12 22 13 36 130 116 125 126 133 150 136 330 267 169 236 32 340 296 296 283 284 299 336 336 303 290 291 299 310 310 68 355 322 303 293 283 275 281 286 268 253 254 263 263 258 257 262 265 260 251 250 251 261
310 314 311 309 311 312 313 313 314 312 313 314 309 306 305 307 303 248 241 280 348 354 268 255 250 246 225 166 164 161 148 160 147 19 7 30 30 21 42 83 125 147 155 165 175 249 308 318 246 219 142 8 345 314 310 337 313 289 306 304 292 288 283 290 302 352 354 319 296 291 282 278 286 288 283 274 252 252 263 263 258 256 260 259 253 250 243 248
305 311 311 311 311 310 310 311 312 313 313 309 308 310 303 306 290 197 213 236 174 161 208 187 187 231 255 159 131 109 138 160 147 31 20 33 279 13 34 44 118 171 197 208 100 46 323 223 194 234 202 19 25 4 347 23 282 278 285 290 288 291 284 281 293 327 356 312 292 287 283 286 291 288 288 287 271 259 265 265 258 250 251 253 251 248 243 240
299 304 308 311 310 306 306 307 308 311 311 310 321 329 298 211 231 206 182 213 219 220 19 169 188 274 47 114 115 129 139 151 153 35 22 23 63 160 14 12 141 167 205 232 58 49 297 240 209 250 129 118 75 334 352 10 263 272 270 272 272 281 283 282 290 304 21 310 286 283 283 279 281 278 279 283 277 267 265 262 256 245 238 241 245 243 241 238
292 301 306 307 309 306 302 302 303 305 303 308 323 330 267 272 276 306 222 231 217 194 237 177 206 277 201 115 131 154 153 143 182 49 21 23 77 190 199 215 191 174 107 253 338 19 246 244 193 167 149 137 151 197 233 236 243 259 266 279 279 273 278 284 291 295 17 316 288 291 290 276 272 274 273 271 265 262 261 258 255 248 237 234 239 241 240 236
283 296 302 300 304 304 300 300 294 293 296 302 314 300 237 284 243 23 327 263 213 175 195 157 192 236 204 203 179 167 174 183 192 177 13 13 147 224 173 163 204 176 112 185 218 199 230 235 164 150 144 142 146 180 210 240 251 256 264 278 280 290 297 283 270 277 319 301 295 304 300 283 271 268 268 264 256 255 256 257 258 258 247 235 236 239 240 236
274 289 296 293 299 299 296 296 288 285 288 289 278 231 203 185 134 58 293 275 268 175 178 181 188 183 166 196 185 170 183 206 188 145 3 350 163 312 198 161 170 153 152 198 208 220 241 173 143 142 156 177 178 178 207 251 250 245 261 276 279 311 324 288 257 336 312 288 289 302 295 281 276 266 266 265 256 259 261 261 263 263 254 246 245 247 244 240
270 285 290 287 293 294 291 287 282 275 272 270 250 221 199 185 131 88 207 272 272 190 184 189 185 184 167 154 171 174 178 359 164 85 5 356 156 265 247 138 134 170 180 196 218 253 264 94 115 141 177 206 209 193 207 248 257 243 247 257 280 301 300 285 302 318 306 267 280 316 300 279 286 286 280 266 233 261 266 268 267 259 250 248 251 250 247 245
268 279 284 285 288 291 292 284 272 257 250 253 237 208 195 199 155 178 224 283 262 209 167 179 185 191 157 125 146 157 141 124 102 19 11 25 138 166 130 104 233 200 166 143 208 259 247 111 138 169 185 206 219 222 211 233 273 266 240 243 275 299 297 288 307 320 309 265 48 5 327 286 332 303 292 303 286 277 271 264 266 264 249 236 239 245 247 248
263 276 282 278 277 281 280 270 251 232 229 227 213 191 194 208 161 180 207 312 263 180 147 174 185 177 159 128 127 144 164 173 103 56 56 53 23 221 158 141 283 188 147 150 237 266 180 128 172 189 191 197 220 242 205 199 267 289 254 227 267 287 287 295 312 319 310 304 334 358 302 281 308 309 303 338 314 299 292 271 265 268 260 242 240 243 243 244
258 274 279 267 262 263 249 249 216 203 219 202 191 184 196 205 177 203 228 287 259 150 128 191 263 173 165 133 141 162 185 169 127 95 48 29 354 272 207 177 171 124 137 191 249 222 144 155 181 187 193 203 225 244 188 183 247 298 75 51 286 288 288 302 312 297 297 311 303 270 234 266 295 300 260 8 317 313 308 293 272 263 255 248 250 244 239 240
252 266 271 256 248 243 234 258 247 219 235 173 171 182 191 191 191 211 229 260 257 113 110 129 94 110 129 102 73 125 25 22 144 107 25 23 44 274 238 220 183 131 142 228 247 33 130 176 187 185 195 215 227 257 159 185 230 354 76 305 296 304 300 308 300 285 304 316 297 192 202 263 278 272 210 117 310 306 296 287 281 284 272 257 257 248 243 242
243 249 256 244 240 240 240 252 247 230 229 170 170 188 185 185 203 203 235 243 202 92 81 122 128 91 106 125 72 66 57 20 30 349 345 51 59 25 258 146 110 115 128 259 262 9 38 226 226 203 212 224 194 61 155 197 218 44 82 287 275 253 308 321 289 288 295 285 276 153 205 275 289 282 278 118 263 272 272 270 274 290 290 276 272 263 251 244
236 235 244 235 228 233 236 243 239 229 204 176 179 185 175 185 213 183 200 231 150 89 77 136 152 137 144 153 121 46 69 28 4 339 335 102 67 44 72 115 109 119 155 271 258 262 13 320 298 243 244 292 89 76 68 208 23 36 295 292 263 215 185 101 264 280 262 248 264 100 232 278 302 289 277 238 247 264 274 285 293 294 290 282 278 273 262 246
229 228 236 226 222 227 221 238 240 225 202 186 179 177 181 185 243 191 205 235 105 116 140 137 122 140 159 169 151 111 117 20 342 316 144 135 120 103 128 171 146 157 217 239 236 230 66 233 229 210 259 287 151 145 100 84 63 268 292 306 283 248 188 192 167 193 255 269 74 67 275 265 260 265 265 262 271 270 275 287 291 289 289 288 281 273 265 250
226 226 231 222 223 227 217 233 244 212 199 187 172 182 198 195 224 214 228 301 117 169 153 128 150 165 162 176 110 125 149 145 47 63 156 165 197 178 197 216 175 221 241 206 206 191 176 209 193 68 217 211 200 180 155 154 170 213 213 273 291 297 267 256 242 217 257 298 88 126 278 255 246 255 266 275 276 274 278 283 278 278 281 281 277 272 261 238
228 225 226 222 222 225 222 225 210 185 185 178 175 203 202 211 223 198 203 244 160 107 73 88 100 135 145 161 170 148 181 177 129 124 151 148 218 218 227 223 168 265 275 142 317 249 202 143 129 190 209 197 202 199 193 190 176 187 198 243 280 315 326 301 296 281 276 289 136 159 223 259 265 259 249 258 270 274 279 279 270 268 270 271 274 278 276 257
228 222 221 221 222 228 226 218 196 178 176 174 185 194 180 217 233 177 196 216 110 87 74 92 107 113 148 184 184 179 196 180 132 150 176 165 206 225 219 204 193 198 63 204 275 234 235 274 163 189 162 171 196 225 348 106 149 161 92 329 272 293 293 287 304 296 301 308 237 163 204 250 275 304 260 266 284 282 274 268 260 259 260 267 276 280 280 268
226 222 221 219 221 226 223 213 202 185 176 175 198 207 203 209 192 187 201 166 147 137 99 68 125 138 197 224 180 211 232 207 138 158 195 189 205 218 198 192 192 187 159 196 211 140 251 285 135 149 106 177 190 210 348 134 137 126 96 204 244 253 255 273 311 289 301 308 272 201 237 245 262 287 288 290 296 284 269 256 246 254 251 253 268 268 267 265
218 217 219 216 217 219 214 209 200 187 181 177 204 218 221 221 185 196 170 134 150 147 134 129 149 163 214 217 176 182 245 174 158 184 210 204 229 224 200 190 186 192 193 185 188 160 229 293 107 130 195 193 200 141 215 277 138 148 173 188 114 52 286 272 268 185 233 274 264 217 265 278 282 283 280 281 281 267 263 256 240 240 242 243 255 257 257 261
206 205 210 211 215 216 210 205 194 183 184 190 215 222 214 230 215 180 128 107 122 142 147 169 184 181 197 203 186 172 165 169 173 194 200 196 229 200 198 235 187 194 211 246 252 217 216 293 97 165 186 174 265 346 122 335 334 176 190 148 112 106 298 300 280 281 251 263 265 225 270 291 305 300 288 268 270 255 236 247 248 246 251 255 256 256 255 253
196 195 210 215 216 213 204 199 188 175 176 200 225 236 205 204 225 140 141 131 121 147 170 198 192 182 192 194 172 161 170 172 167 184 198 194 217 168 170 199 181 191 212 241 268 224 214 228 130 306 228 140 151 231 171 141 256 310 6 126 132 241 198 170 272 297 296 291 290 253 275 284 255 245 280 282 282 281 238 226 253 265 264 263 261 260 259 252
185 187 224 213 213 210 194 189 180 167 186 205 218 229 198 202 231 175 173 156 128 165 189 206 197 174 184 172 135 152 183 180 159 179 209 191 199 170 167 179 170 181 185 177 234 201 198 248 188 140 201 137 154 225 208 169 167 309 227 168 272 288 235 210 268 309 281 294 304 298 303 283 231 213 250 270 276 284 286 278 278 283 281 283 287 280 272 263
175 191 222 190 199 195 180 177 171 175 200 210 214 209 175 206 218 201 198 185 140 175 193 203 189 175 173 159 143 166 185 188 168 184 215 186 211 197 179 172 151 159 164 182 263 224 163 245 213 136 151 165 186 210 201 179 163 176 201 191 188 189 190 279 245 213 239 274 290 288 291 282 266 243 246 262 272 275 281 287 283 283 285 285 284 277 274 269
164 214 203 170 180 175 166 171 180 186 205 223 225 201 180 201 190 185 209 220 281 311 181 193 184 177 164 158 184 173 160 183 186 196 215 197 223 219 174 155 146 147 152 180 228 211 175 212 193 153 180 210 211 192 209 201 175 175 194 190 189 178 160 235 239 208 210 235 254 274 292 284 276 255 237 254 268 268 268 271 269 273 277 277 273 268 268 266
167 221 172 160 168 166 160 181 193 186 217 223 203 193 191 190 175 176 183 190 248 267 121 164 185 178 170 164 173 163 158 176 188 200 222 208 217 224 159 148 148 151 153 158 198 180 128 195 205 199 210 214 181 54 342 269 192 198 225 198 188 184 185 215 234 192 188 216 250 273 282 275 259 159 187 235 250 269 271 262 263 269 271 272 274 272 269 267
186 189 149 160 166 163 161 198 196 198 223 221 177 219 205 184 177 172 172 183 192 179 178 196 186 194 199 175 148 165 175 183 184 190 213 215 216 207 155 153 149 159 171 155 153 154 142 184 212 249 238 158 78 76 44 347 190 219 239 205 192 197 203 216 221 142 194 211 212 213 251 262 254 151 197 220 218 255 261 257 260 267 271 273 275 274 273 273
178 150 128 166 169 167 174 199 195 204 214 212 228 221 220 240 195 176 175 187 186 169 176 193 195 200 201 171 151 171 181 189 197 197 203 204 192 91 148 163 160 170 192 185 155 168 184 193 190 239 246 183 168 152 166 216 209 224 232 211 210 209 203 222 346 204 249 225 207 212 247 254 247 126 213 235 240 257 267 269 270 272 274 278 281 279 278 278
151 150 63 174 175 179 200 202 173 199 205 204 219 212 210 236 207 190 186 187 185 177 172 183 185 158 138 151 136 165 186 200 208 195 194 200 191 76 164 187 186 185 189 255 155 170 188 196 182 207 230 219 222 203 183 181 182 216 232 215 214 210 202 210 210 217 239 220 202 214 239 258 275 277 271 271 269 275 281 282 280 273 269 277 282 285 286 284
165 167 161 168 184 198 221 207 165 202 201 196 210 209 205 216 213 196 198 192 181 176 168 128 151 138 141 164 155 173 199 209 169 161 186 201 200 110 173 201 208 207 209 207 182 168 158 212 215 233 250 250 272 36 111 132 157 190 208 206 207 206 206 210 215 223 225 213 222 227 235 271 285 281 283 288 284 284 288 291 294 292 289 290 287 288 289 287
186 190 174 165 181 208 216 209 200 211 191 184 191 192 199 209 200 172 207 208 177 170 171 150 167 173 175 169 166 191 189 179 147 171 198 198 175 79 138 189 218 229 245 221 184 163 142 218 220 233 248 260 287 303 153 170 220 221 214 212 206 201 203 207 220 223 190 204 255 234 210 246 271 275 282 288 286 288 292 295 302 305 303 299 294 291 290 289
190 197 181 173 172 190 201 202 198 196 179 180 195 196 196 203 196 185 192 182 171 178 180 203 203 197 181 164 167 178 160 161 197 193 196 190 170 160 148 173 215 214 212 207 189 180 206 227 206 210 240 256 269 264 216 217 246 243 237 235 222 208 203 208 223 224 195 217 251 243 206 238 259 270 276 277 279 288 293 296 302 302 297 293 292 294 294 293
194 205 187 188 193 193 199 199 188 182 182 186 202 210 204 205 203 196 160 137 188 202 199 212 207 196 186 171 172 175 159 169 207 205 199 187 169 174 176 191 207 193 191 197 194 193 217 231 199 200 245 260 258 256 244 237 247 248 244 241 232 224 219 218 226 228 221 235 251 258 260 263 265 265 269 273 279 288 292 294 294 290 288 289 291 293 292 294
191 182 170 195 213 201 202 199 177 179 192 191 204 216 214 213 208 194 154 169 187 188 204 217 197 179 188 188 190 199 184 181 196 195 184 174 171 190 198 188 159 163 190 197 190 198 215 219 146 160 245 262 254 251 244 238 244 248 250 246 235 231 233 232 234 233 231 241 249 254 263 269 266 261 263 270 279 288 287 285 284 282 283 286 289 291 291 295
220 220 178 187 206 193 190 189 178 187 195 187 206 218 214 215 208 194 188 202 199 184 191 200 181 166 190 203 207 208 189 187 199 178 168 175 179 187 194 173 143 155 186 196 184 188 204 211 99 133 249 251 218 235 247 252 257 251 253 252 235 225 229 230 230 226 222 232 243 249 254 258 259 262 262 263 269 274 274 276 279 282 285 285 287 290 292 296
240 244 233 201 204 193 187 186 182 189 193 192 206 212 208 211 204 190 201 218 212 206 193 183 175 168 192 209 212 205 181 182 191 128 151 170 153 151 171 163 156 157 170 183 186 184 189 196 158 167 243 252 136 155 266 286 279 253 236 236 227 218 221 228 231 226 219 221 231 235 236 243 251 260 272 272 272 268 268 274 279 284 292 294 290 288 288 292